Overview Statistics Trail Chart Weather Telemetry Raw packets
 

This is the latest recevied weather packets stored in our database for station/object GW4003. If no packets are shown the sender has not sent any weather packets the latest 10 day(s).

<< 70 71 72 73 74 75 76 >>
Time Temp. Humidity Pressure Rain* Wind** Luminosity Snow
1788134480 23.33° C 51% 1020.4 hPa 0 mm - - -
1788134176 23.33° C 51% 1020.6 hPa 0 mm - - -
1788133872 23.33° C 52% 1020.6 hPa 0 mm - - -
1788133568 23.33° C 51% 1020.6 hPa 0 mm - - -
1788133264 22.78° C 49% 1020.6 hPa 0 mm - - -
1788132961 22.78° C 50% 1020.4 hPa 0 mm - - -
1788132657 22.78° C 50% 1020.4 hPa 0 mm - - -
1788132357 22.78° C 51% 1020.5 hPa 0 mm - - -
1788132053 22.78° C 50% 1020.4 hPa 0 mm - - -
1788131750 22.22° C 52% 1020.3 hPa 0 mm - - -
1788131446 22.22° C 53% 1020.2 hPa 0 mm - - -
1788131142 22.22° C 52% 1020.4 hPa 0 mm - - -
1788130838 22.22° C 52% 1020.4 hPa 0 mm - - -
1788130535 22.22° C 51% 1020.3 hPa 0 mm - - -
1788130231 22.22° C 51% 1020.3 hPa 0 mm - - -
1788129928 21.67° C 54% 1020.3 hPa 0 mm - - -
1788129624 21.67° C 54% 1020.4 hPa 0 mm - - -
1788129320 21.67° C 54% 1020.5 hPa 0 mm - - -
1788129017 21.67° C 55% 1020.5 hPa 0 mm - - -
1788128713 21.67° C 57% 1020.6 hPa 0 mm - - -
1788128409 21.11° C 57% 1020.8 hPa 0 mm - - -
1788128106 21.11° C 54% 1020.8 hPa 0 mm - - -
1788127802 21.11° C 55% 1021 hPa 0 mm - - -
1788127498 21.11° C 57% 1021 hPa 0 mm - - -
1788127195 21.11° C 56% 1021.2 hPa 0 mm - - -

* Rain latest hour (hover to see other rain measurements)
** Current wind speed in m/s (hover to see current wind gust speed)